Time,TemperatureF,DewpointF,PressureIn,WindDirection,WindDirectionDegrees,WindSpeedMPH,WindSpeedGustMPH,Humidity,HourlyPrecipIn,Conditions,Clouds,dailyrainin,SoftwareType,DateUTC
2013-08-30 00:01:00,71.2,68.5,30.04,ESE,123,0.0,0.0,91,0.00,,,0.00,meteohub,2013-08-30 04:01:00,
2013-08-30 00:06:00,71.1,68.5,30.04,ESE,123,0.0,0.0,92,0.00,,,0.00,meteohub,2013-08-30 04:06:00,
2013-08-30 00:11:00,71.1,68.5,30.04,ESE,123,0.0,0.0,92,0.00,,,0.00,meteohub,2013-08-30 04:11:00,
2013-08-30 00:16:00,70.9,68.4,30.03,ESE,123,0.0,0.0,92,0.00,,,0.00,meteohub,2013-08-30 04:16:00,
2013-08-30 00:21:00,70.9,68.4,30.03,ESE,123,0.0,0.0,92,0.00,,,0.00,meteohub,2013-08-30 04:21:00,
2013-08-30 00:26:00,70.9,68.7,30.03,ESE,123,0.0,0.0,93,0.00,,,0.00,meteohub,2013-08-30 04:26:00,
2013-08-30 00:31:00,70.7,68.5,30.02,ESE,123,0.0,0.0,93,0.00,,,0.00,meteohub,2013-08-30 04:31:00,
2013-08-30 00:36:00,70.7,68.9,30.02,ESE,123,0.0,0.0,94,0.00,,,0.00,meteohub,2013-08-30 04:36:00,
2013-08-30 00:41:00,70.7,68.9,30.03,ESE,122,0.0,2.0,94,0.00,,,0.00,meteohub,2013-08-30 04:41:00,
2013-08-30 00:46:00,70.5,68.7,30.04,ESE,122,0.0,2.0,94,0.00,,,0.00,meteohub,2013-08-30 04:46:00,
2013-08-30 00:51:00,70.5,68.7,30.03,ESE,122,0.0,2.0,94,0.00,,,0.00,meteohub,2013-08-30 04:51:00,
2013-08-30 00:56:00,70.7,68.9,30.03,ESE,122,0.0,0.0,94,0.00,,,0.00,meteohub,2013-08-30 04:56:00,
2013-08-30 01:01:00,70.9,69.4,30.03,SW,218,0.0,1.0,95,0.00,,,0.00,meteohub,2013-08-30 05:01:00,
2013-08-30 01:06:00,71.1,69.6,30.02,SSW,204,0.0,2.0,95,0.00,,,0.00,meteohub,2013-08-30 05:06:00,
2013-08-30 01:11:00,71.1,69.3,30.02,SSW,204,0.0,2.0,94,0.00,,,0.00,meteohub,2013-08-30 05:11:00,
2013-08-30 01:16:00,71.2,69.4,30.02,SSW,204,0.0,2.0,94,0.00,,,0.00,meteohub,2013-08-30 05:16:00,
2013-08-30 01:22:00,71.4,69.3,30.02,NW,321,0.0,2.0,93,0.00,,,0.00,meteohub,2013-08-30 05:22:00,
2013-08-30 01:27:00,71.4,69.3,30.02,NW,321,0.0,2.0,93,0.00,,,0.00,meteohub,2013-08-30 05:27:00,
2013-08-30 01:32:00,71.4,69.3,30.02,SW,227,0.0,2.0,93,0.00,,,0.00,meteohub,2013-08-30 05:32:00,
2013-08-30 01:37:00,71.4,69.3,30.03,SW,227,0.0,3.0,93,0.00,,,0.00,meteohub,2013-08-30 05:37:00,
2013-08-30 01:42:00,71.2,69.1,30.03,SW,227,0.0,3.0,93,0.00,,,0.00,meteohub,2013-08-30 05:42:00,
2013-08-30 01:47:00,71.2,68.7,30.03,SW,227,0.0,1.0,92,0.00,,,0.00,meteohub,2013-08-30 05:47:00,
2013-08-30 01:52:00,71.1,68.9,30.03,SW,227,0.0,1.0,93,0.00,,,0.00,meteohub,2013-08-30 05:52:00,
2013-08-30 01:57:00,71.1,68.5,30.03,SW,227,0.0,1.0,92,0.00,,,0.00,meteohub,2013-08-30 05:57:00,
2013-08-30 02:02:00,71.1,68.5,30.03,SW,227,0.0,1.0,92,0.00,,,0.00,meteohub,2013-08-30 06:02:00,
2013-08-30 02:07:00,70.9,68.7,30.03,SW,227,0.0,0.0,93,0.00,,,0.00,meteohub,2013-08-30 06:07:00,
2013-08-30 02:12:00,70.9,68.7,30.03,SW,227,0.0,0.0,93,0.00,,,0.00,meteohub,2013-08-30 06:12:00,
2013-08-30 02:17:00,70.7,68.5,30.03,SW,227,0.0,0.0,93,0.00,,,0.00,meteohub,2013-08-30 06:17:00,
2013-08-30 02:22:00,70.5,68.4,30.03,SW,227,0.0,0.0,93,0.00,,,0.00,meteohub,2013-08-30 06:22:00,
2013-08-30 02:27:00,70.5,68.4,30.04,SW,227,0.0,0.0,93,0.00,,,0.00,meteohub,2013-08-30 06:27:00,
2013-08-30 02:32:00,70.5,68.7,30.04,SW,227,1.0,0.0,94,0.00,,,0.00,meteohub,2013-08-30 06:32:00,
2013-08-30 02:37:00,70.5,68.7,30.04,SW,227,0.0,1.0,94,0.00,,,0.00,meteohub,2013-08-30 06:37:00,
2013-08-30 02:42:00,70.5,68.7,30.04,SW,227,0.0,1.0,94,0.00,,,0.00,meteohub,2013-08-30 06:42:00,
2013-08-30 02:47:00,70.5,68.7,30.04,SSE,153,0.0,2.0,94,0.00,,,0.00,meteohub,2013-08-30 06:47:00,
2013-08-30 02:52:00,70.7,68.5,30.03,SSE,153,0.0,2.0,93,0.00,,,0.00,meteohub,2013-08-30 06:52:00,
2013-08-30 02:57:00,70.7,68.5,30.03,SSE,154,0.0,2.0,93,0.00,,,0.00,meteohub,2013-08-30 06:57:00,
2013-08-30 03:02:00,70.7,68.5,30.03,SSE,154,0.0,1.0,93,0.00,,,0.00,meteohub,2013-08-30 07:02:00,
2013-08-30 03:07:00,70.9,68.4,30.03,SW,228,1.0,1.0,92,0.00,,,0.00,meteohub,2013-08-30 07:07:00,
2013-08-30 03:12:00,70.9,68.4,30.03,SW,228,0.0,2.0,92,0.00,,,0.00,meteohub,2013-08-30 07:12:00,
2013-08-30 03:17:00,71.1,68.5,30.03,NW,309,0.0,2.0,92,0.00,,,0.00,meteohub,2013-08-30 07:17:00,
2013-08-30 03:22:00,71.1,68.5,30.03,ESE,105,0.0,2.0,92,0.00,,,0.00,meteohub,2013-08-30 07:22:00,
2013-08-30 03:27:00,71.1,68.4,30.03,ESE,104,0.0,2.0,91,0.00,,,0.00,meteohub,2013-08-30 07:27:00,
2013-08-30 03:32:00,71.1,68.4,30.03,ESE,102,0.0,2.0,91,0.00,,,0.00,meteohub,2013-08-30 07:32:00,
2013-08-30 03:37:00,71.1,68.4,30.03,SSW,210,0.0,2.0,91,0.00,,,0.00,meteohub,2013-08-30 07:37:00,
2013-08-30 03:42:00,71.1,68.4,30.02,SSW,210,0.0,1.0,91,0.00,,,0.00,meteohub,2013-08-30 07:42:00,
2013-08-30 03:47:00,71.1,68.4,30.02,SSW,210,0.0,1.0,91,0.00,,,0.00,meteohub,2013-08-30 07:47:00,
2013-08-30 03:52:00,71.1,68.0,30.02,SSW,210,0.0,1.0,90,0.00,,,0.00,meteohub,2013-08-30 07:52:00,
2013-08-30 03:57:00,71.1,68.4,30.02,SSW,210,0.0,1.0,91,0.00,,,0.00,meteohub,2013-08-30 07:57:00,
2013-08-30 04:02:00,71.1,68.4,30.02,South,173,0.0,1.0,91,0.00,,,0.00,meteohub,2013-08-30 08:02:00,
2013-08-30 04:07:00,71.1,68.4,30.02,South,173,0.0,2.0,91,0.00,,,0.00,meteohub,2013-08-30 08:07:00,
2013-08-30 04:12:00,71.1,68.0,30.02,South,173,0.0,2.0,90,0.00,,,0.00,meteohub,2013-08-30 08:12:00,
2013-08-30 04:17:00,71.1,68.4,30.02,South,173,0.0,2.0,91,0.00,,,0.00,meteohub,2013-08-30 08:17:00,
2013-08-30 04:22:00,71.1,68.4,30.02,South,173,0.0,1.0,91,0.00,,,0.00,meteohub,2013-08-30 08:22:00,
2013-08-30 04:27:00,71.1,68.4,30.02,South,173,0.0,1.0,91,0.00,,,0.00,meteohub,2013-08-30 08:27:00,
2013-08-30 04:32:00,71.1,68.4,30.02,South,173,0.0,0.0,91,0.00,,,0.00,meteohub,2013-08-30 08:32:00,
2013-08-30 04:37:00,71.1,68.5,30.02,South,173,0.0,0.0,92,0.00,,,0.00,meteohub,2013-08-30 08:37:00,
2013-08-30 04:42:00,71.1,68.4,30.02,South,173,0.0,0.0,91,0.00,,,0.00,meteohub,2013-08-30 08:42:00,
2013-08-30 04:47:00,70.9,68.4,30.02,SSW,205,0.0,1.0,92,0.00,,,0.00,meteohub,2013-08-30 08:47:00,
2013-08-30 04:52:00,70.9,68.4,30.02,SW,229,0.0,1.0,92,0.00,,,0.00,meteohub,2013-08-30 08:52:00,
2013-08-30 04:57:00,70.9,68.4,30.02,SW,229,0.0,2.0,92,0.00,,,0.00,meteohub,2013-08-30 08:57:00,
2013-08-30 05:02:00,70.9,68.4,30.03,SW,229,0.0,2.0,92,0.00,,,0.00,meteohub,2013-08-30 09:02:00,
2013-08-30 05:07:00,70.9,68.4,30.03,SW,229,0.0,0.0,92,0.00,,,0.00,meteohub,2013-08-30 09:07:00,
2013-08-30 05:12:00,70.7,68.2,30.03,SW,229,0.0,0.0,92,0.00,,,0.00,meteohub,2013-08-30 09:12:00,
2013-08-30 05:17:00,70.7,68.2,30.03,SW,229,0.0,0.0,92,0.00,,,0.00,meteohub,2013-08-30 09:17:00,
2013-08-30 05:22:00,70.7,68.2,30.03,SW,229,0.0,0.0,92,0.00,,,0.00,meteohub,2013-08-30 09:22:00,
2013-08-30 05:27:00,70.7,68.5,30.03,SW,229,0.0,0.0,93,0.00,,,0.00,meteohub,2013-08-30 09:27:00,
2013-08-30 05:32:00,70.5,68.4,30.03,SW,229,0.0,0.0,93,0.00,,,0.00,meteohub,2013-08-30 09:32:00,
2013-08-30 05:37:00,70.5,68.4,30.03,SW,229,0.0,0.0,93,0.00,,,0.00,meteohub,2013-08-30 09:37:00,
2013-08-30 05:42:00,70.7,68.9,30.03,SW,229,0.0,0.0,94,0.00,,,0.00,meteohub,2013-08-30 09:42:00,
2013-08-30 05:47:00,70.9,69.1,30.03,SW,229,0.0,0.0,94,0.00,,,0.00,meteohub,2013-08-30 09:47:00,
2013-08-30 05:52:00,70.9,69.1,30.03,SW,229,0.0,0.0,94,0.00,,,0.00,meteohub,2013-08-30 09:52:00,
2013-08-30 05:57:00,71.1,69.3,30.03,SW,229,0.0,0.0,94,0.00,,,0.00,meteohub,2013-08-30 09:57:00,
2013-08-30 06:02:00,71.1,69.3,30.03,SW,229,0.0,0.0,94,0.00,,,0.00,meteohub,2013-08-30 10:02:00,
2013-08-30 06:07:00,70.9,68.7,30.03,SW,229,0.0,0.0,93,0.00,,,0.00,meteohub,2013-08-30 10:07:00,
2013-08-30 06:12:00,70.9,68.7,30.03,SW,229,0.0,1.0,93,0.00,,,0.00,meteohub,2013-08-30 10:12:00,
2013-08-30 06:17:00,70.9,68.7,30.03,SW,229,0.0,1.0,93,0.00,,,0.00,meteohub,2013-08-30 10:17:00,
2013-08-30 06:22:00,70.9,69.1,30.03,SW,229,0.0,1.0,94,0.00,,,0.00,meteohub,2013-08-30 10:22:00,
2013-08-30 06:27:00,70.7,68.5,30.03,SW,229,0.0,0.0,93,0.00,,,0.00,meteohub,2013-08-30 10:27:00,
2013-08-30 06:32:00,70.5,68.4,30.03,SW,229,0.0,0.0,93,0.00,,,0.00,meteohub,2013-08-30 10:32:00,
2013-08-30 06:37:00,70.5,68.4,30.03,SW,229,0.0,1.0,93,0.00,,,0.00,meteohub,2013-08-30 10:37:00,
2013-08-30 06:42:00,70.5,68.4,30.03,SSE,153,1.0,1.0,93,0.00,,,0.00,meteohub,2013-08-30 10:42:00,
2013-08-30 06:47:00,70.5,68.4,30.03,SSE,153,1.0,1.0,93,0.00,,,0.00,meteohub,2013-08-30 10:47:00,
2013-08-30 06:52:00,70.3,68.2,30.04,SW,222,0.0,2.0,93,0.00,,,0.00,meteohub,2013-08-30 10:52:00,
2013-08-30 06:57:00,70.5,68.4,30.04,SW,222,0.0,2.0,93,0.00,,,0.00,meteohub,2013-08-30 10:57:00,
2013-08-30 07:02:00,70.5,68.4,30.04,SW,222,0.0,2.0,93,0.00,,,0.00,meteohub,2013-08-30 11:02:00,
2013-08-30 07:07:00,70.3,68.2,30.04,SW,222,0.0,1.0,93,0.00,,,0.00,meteohub,2013-08-30 11:07:00,
2013-08-30 07:12:00,70.3,68.2,30.04,SW,222,0.0,1.0,93,0.00,,,0.00,meteohub,2013-08-30 11:12:00,
2013-08-30 07:17:00,70.5,68.4,30.04,SW,222,0.0,1.0,93,0.00,,,0.00,meteohub,2013-08-30 11:17:00,
2013-08-30 07:22:00,70.5,68.4,30.04,SW,222,0.0,1.0,93,0.00,,,0.00,meteohub,2013-08-30 11:22:00,
2013-08-30 07:27:00,70.5,68.4,30.04,SW,222,0.0,0.0,93,0.00,,,0.00,meteohub,2013-08-30 11:27:00,
2013-08-30 07:32:00,70.5,68.0,30.04,SW,222,1.0,1.0,92,0.00,,,0.00,meteohub,2013-08-30 11:32:00,
2013-08-30 07:37:00,70.7,68.5,30.04,SW,221,0.0,1.0,93,0.00,,,0.00,meteohub,2013-08-30 11:37:00,
2013-08-30 07:42:00,70.9,68.7,30.05,SW,221,0.0,1.0,93,0.00,,,0.00,meteohub,2013-08-30 11:42:00,
2013-08-30 07:47:00,70.9,68.7,30.04,WSW,244,1.0,2.0,93,0.00,,,0.00,meteohub,2013-08-30 11:47:00,
2013-08-30 07:52:00,71.1,68.5,30.04,West,274,1.0,3.0,92,0.00,,,0.00,meteohub,2013-08-30 11:52:00,
2013-08-30 07:57:00,71.1,68.5,30.04,West,274,1.0,3.0,92,0.00,,,0.00,meteohub,2013-08-30 11:57:00,
2013-08-30 08:02:00,71.2,68.7,30.04,SW,233,1.0,3.0,92,0.00,,,0.00,meteohub,2013-08-30 12:02:00,
2013-08-30 08:07:00,71.2,68.5,30.04,SSW,200,1.0,2.0,91,0.00,,,0.00,meteohub,2013-08-30 12:07:00,
2013-08-30 08:12:00,71.4,68.7,30.04,SW,225,1.0,3.0,91,0.00,,,0.00,meteohub,2013-08-30 12:12:00,
2013-08-30 08:17:00,71.4,68.4,30.04,NNW,337,0.0,4.0,90,0.00,,,0.00,meteohub,2013-08-30 12:17:00,
2013-08-30 08:22:00,71.8,68.7,30.04,South,190,0.0,4.0,90,0.00,,,0.00,meteohub,2013-08-30 12:22:00,
2013-08-30 08:27:00,72.0,69.3,30.04,South,190,0.0,4.0,91,0.00,,,0.00,meteohub,2013-08-30 12:27:00,
2013-08-30 08:32:00,72.3,69.6,30.04,SW,216,1.0,3.0,91,0.00,,,0.00,meteohub,2013-08-30 12:32:00,
2013-08-30 08:37:00,72.9,69.4,30.04,East,92,0.0,3.0,89,0.00,,,0.00,meteohub,2013-08-30 12:37:00,
2013-08-30 08:42:00,73.2,69.4,30.04,North,0,0.0,3.0,88,0.00,,,0.00,meteohub,2013-08-30 12:42:00,
2013-08-30 08:47:00,73.9,69.4,30.04,ESE,115,0.0,3.0,86,0.00,,,0.00,meteohub,2013-08-30 12:47:00,
2013-08-30 08:52:00,74.7,70.2,30.04,East,87,1.0,5.0,86,0.00,,,0.00,meteohub,2013-08-30 12:52:00,
2013-08-30 08:57:00,75.4,70.2,30.05,SSW,211,0.0,5.0,84,0.00,,,0.00,meteohub,2013-08-30 12:57:00,
2013-08-30 09:02:00,75.4,70.2,30.05,South,174,0.0,5.0,84,0.00,,,0.00,meteohub,2013-08-30 13:02:00,
2013-08-30 09:07:00,75.6,70.0,30.05,SSE,163,1.0,5.0,83,0.00,,,0.00,meteohub,2013-08-30 13:07:00,
2013-08-30 09:12:00,75.6,69.6,30.05,South,188,2.0,3.0,82,0.00,,,0.00,meteohub,2013-08-30 13:12:00,
2013-08-30 09:17:00,75.9,70.7,30.05,SE,126,0.0,6.0,84,0.00,,,0.00,meteohub,2013-08-30 13:17:00,
2013-08-30 09:22:00,75.9,70.0,30.05,South,170,1.0,6.0,82,0.00,,,0.00,meteohub,2013-08-30 13:22:00,
2013-08-30 09:27:00,76.3,70.3,30.05,East,83,0.0,6.0,82,0.00,,,0.00,meteohub,2013-08-30 13:27:00,
2013-08-30 09:32:00,76.5,70.5,30.05,SSW,194,0.0,3.0,82,0.00,,,0.00,meteohub,2013-08-30 13:32:00,
2013-08-30 09:37:00,76.8,70.5,30.05,ESE,107,0.0,4.0,81,0.00,,,0.00,meteohub,2013-08-30 13:37:00,
2013-08-30 09:42:00,77.2,70.5,30.05,NW,325,0.0,4.0,80,0.00,,,0.00,meteohub,2013-08-30 13:42:00,
2013-08-30 09:47:00,77.4,70.7,30.05,East,100,2.0,3.0,80,0.00,,,0.00,meteohub,2013-08-30 13:47:00,
2013-08-30 09:52:00,77.9,71.6,30.05,East,90,0.0,4.0,81,0.00,,,0.00,meteohub,2013-08-30 13:52:00,
2013-08-30 09:57:00,78.3,71.6,30.05,South,180,0.0,4.0,80,0.00,,,0.00,meteohub,2013-08-30 13:57:00,
2013-08-30 10:02:00,78.4,71.8,30.04,South,180,0.0,3.0,80,0.00,,,0.00,meteohub,2013-08-30 14:02:00,
2013-08-30 10:07:00,78.6,71.6,30.04,SW,218,1.0,3.0,79,0.00,,,0.00,meteohub,2013-08-30 14:07:00,
2013-08-30 10:12:00,79.3,72.0,30.04,East,85,1.0,4.0,78,0.00,,,0.00,meteohub,2013-08-30 14:12:00,
2013-08-30 10:17:00,79.7,73.0,30.04,South,187,0.0,4.0,80,0.00,,,0.00,meteohub,2013-08-30 14:17:00,
2013-08-30 10:22:00,80.1,71.4,30.04,SE,144,0.0,4.0,75,0.00,,,0.00,meteohub,2013-08-30 14:22:00,
2013-08-30 10:27:00,80.2,71.6,30.03,SW,219,0.0,6.0,75,0.00,,,0.00,meteohub,2013-08-30 14:27:00,
2013-08-30 10:32:00,80.2,72.0,30.03,SSW,198,1.0,6.0,76,0.00,,,0.00,meteohub,2013-08-30 14:32:00,
2013-08-30 10:37:00,80.4,71.8,30.03,WSW,251,1.0,6.0,75,0.00,,,0.00,meteohub,2013-08-30 14:37:00,
2013-08-30 10:42:00,80.8,72.5,30.03,WSW,248,1.0,5.0,76,0.00,,,0.00,meteohub,2013-08-30 14:42:00,
2013-08-30 10:47:00,81.0,72.7,30.03,NNW,336,2.0,5.0,76,0.00,,,0.00,meteohub,2013-08-30 14:47:00,
2013-08-30 10:52:00,81.0,73.0,30.03,WSW,245,0.0,5.0,77,0.00,,,0.00,meteohub,2013-08-30 14:52:00,
2013-08-30 10:57:00,81.1,72.5,30.03,SW,225,0.0,5.0,75,0.00,,,0.00,meteohub,2013-08-30 14:57:00,
2013-08-30 11:02:00,81.1,72.5,30.03,North,5,0.0,5.0,75,0.00,,,0.00,meteohub,2013-08-30 15:02:00,
2013-08-30 11:07:00,81.3,71.8,30.03,SE,141,2.0,5.0,73,0.00,,,0.00,meteohub,2013-08-30 15:07:00,
2013-08-30 11:12:00,81.7,71.8,30.02,WNW,302,2.0,7.0,72,0.00,,,0.00,meteohub,2013-08-30 15:12:00,
2013-08-30 11:17:00,81.7,72.5,30.03,NNE,17,1.0,7.0,74,0.00,,,0.00,meteohub,2013-08-30 15:17:00,
2013-08-30 11:22:00,81.3,71.4,30.02,South,179,0.0,7.0,72,0.00,,,0.00,meteohub,2013-08-30 15:22:00,
2013-08-30 11:27:00,80.8,71.8,30.02,NNE,24,1.0,4.0,74,0.00,,,0.00,meteohub,2013-08-30 15:27:00,
2013-08-30 11:32:00,80.4,71.8,30.02,West,261,0.0,3.0,75,0.00,,,0.00,meteohub,2013-08-30 15:32:00,
2013-08-30 11:37:00,80.8,72.5,30.02,NW,315,0.0,5.0,76,0.00,,,0.00,meteohub,2013-08-30 15:37:00,
2013-08-30 11:42:00,81.1,72.5,30.02,SSE,161,2.0,5.0,75,0.00,,,0.00,meteohub,2013-08-30 15:42:00,
2013-08-30 11:47:00,81.9,72.7,30.02,East,90,0.0,4.0,74,0.00,,,0.00,meteohub,2013-08-30 15:47:00,
2013-08-30 11:52:00,82.4,72.9,30.01,WNW,302,0.0,4.0,73,0.00,,,0.00,meteohub,2013-08-30 15:52:00,
2013-08-30 11:57:00,82.8,72.9,30.01,East,98,2.0,3.0,72,0.00,,,0.00,meteohub,2013-08-30 15:57:00,
2013-08-30 12:02:00,83.1,72.7,30.01,SSW,202,1.0,7.0,71,0.00,,,0.00,meteohub,2013-08-30 16:02:00,
2013-08-30 12:07:00,83.3,72.9,30.01,NNW,340,1.0,7.0,71,0.00,,,0.00,meteohub,2013-08-30 16:07:00,
2013-08-30 12:12:00,82.9,72.1,30.01,NW,315,0.0,6.0,70,0.00,,,0.00,meteohub,2013-08-30 16:12:00,
2013-08-30 12:17:00,82.9,72.1,30.01,WNW,284,1.0,5.0,70,0.00,,,0.00,meteohub,2013-08-30 16:17:00,
2013-08-30 12:22:00,82.6,73.0,30.01,ESE,109,0.0,5.0,73,0.00,,,0.00,meteohub,2013-08-30 16:22:00,
2013-08-30 12:27:00,82.0,70.9,30.01,NNW,334,3.0,5.0,69,0.00,,,0.00,meteohub,2013-08-30 16:27:00,
2013-08-30 12:32:00,81.7,70.9,30.00,WNW,287,1.0,6.0,70,0.00,,,0.00,meteohub,2013-08-30 16:32:00,
2013-08-30 12:37:00,81.7,71.8,30.01,NNW,346,0.0,6.0,72,0.00,,,0.00,meteohub,2013-08-30 16:37:00,
2013-08-30 12:42:00,81.9,72.0,30.00,NW,315,0.0,6.0,72,0.00,,,0.00,meteohub,2013-08-30 16:42:00,
2013-08-30 12:47:00,81.9,71.6,30.01,South,189,1.0,4.0,71,0.00,,,0.00,meteohub,2013-08-30 16:47:00,
2013-08-30 12:52:00,81.3,70.5,30.00,WNW,301,0.0,4.0,70,0.00,,,0.00,meteohub,2013-08-30 16:52:00,
2013-08-30 12:57:00,81.1,71.2,30.00,SSW,196,0.0,5.0,72,0.00,,,0.00,meteohub,2013-08-30 16:57:00,
2013-08-30 13:02:00,81.7,71.8,30.00,SSE,154,1.0,5.0,72,0.00,,,0.00,meteohub,2013-08-30 17:02:00,
2013-08-30 13:07:00,82.2,72.0,30.00,NW,321,2.0,5.0,71,0.00,,,0.00,meteohub,2013-08-30 17:07:00,
2013-08-30 13:12:00,82.8,71.6,29.99,East,92,0.0,4.0,69,0.00,,,0.00,meteohub,2013-08-30 17:12:00,
2013-08-30 13:17:00,83.7,73.2,29.99,West,278,1.0,4.0,71,0.00,,,0.00,meteohub,2013-08-30 17:17:00,
2013-08-30 13:22:00,83.8,71.2,29.99,South,181,0.0,3.0,66,0.00,,,0.00,meteohub,2013-08-30 17:22:00,
2013-08-30 13:27:00,84.0,72.3,29.99,SSE,155,0.0,5.0,68,0.00,,,0.00,meteohub,2013-08-30 17:27:00,
2013-08-30 13:32:00,83.7,71.1,29.98,NW,310,3.0,5.0,66,0.00,,,0.00,meteohub,2013-08-30 17:32:00,
2013-08-30 13:37:00,83.7,71.1,29.98,SE,129,0.0,6.0,66,0.00,,,0.00,meteohub,2013-08-30 17:37:00,
2013-08-30 13:42:00,83.7,71.1,29.98,NW,311,3.0,6.0,66,0.00,,,0.00,meteohub,2013-08-30 17:42:00,
2013-08-30 13:47:00,82.8,70.2,29.98,WNW,299,1.0,8.0,66,0.00,,,0.00,meteohub,2013-08-30 17:47:00,
2013-08-30 13:52:00,82.9,70.9,29.98,SE,126,0.0,8.0,67,0.00,,,0.00,meteohub,2013-08-30 17:52:00,
2013-08-30 13:57:00,83.7,70.7,29.98,South,169,1.0,8.0,65,0.00,,,0.00,meteohub,2013-08-30 17:57:00,
2013-08-30 14:02:00,84.6,71.4,29.98,West,266,3.0,6.0,65,0.00,,,0.00,meteohub,2013-08-30 18:02:00,
2013-08-30 14:07:00,84.9,72.7,29.98,NNW,328,0.0,5.0,67,0.00,,,0.00,meteohub,2013-08-30 18:07:00,
2013-08-30 14:12:00,84.9,70.9,29.97,SSW,204,2.0,4.0,63,0.00,,,0.00,meteohub,2013-08-30 18:12:00,
2013-08-30 14:17:00,85.1,70.5,29.97,East,101,3.0,5.0,62,0.00,,,0.00,meteohub,2013-08-30 18:17:00,
2013-08-30 14:22:00,85.5,70.9,29.97,NW,309,1.0,5.0,62,0.00,,,0.00,meteohub,2013-08-30 18:22:00,
2013-08-30 14:27:00,85.8,72.1,29.97,SW,225,1.0,6.0,64,0.00,,,0.00,meteohub,2013-08-30 18:27:00,
2013-08-30 14:32:00,86.4,71.8,29.96,ENE,59,3.0,6.0,62,0.00,,,0.00,meteohub,2013-08-30 18:32:00,
2013-08-30 14:37:00,86.4,71.8,29.96,WSW,246,1.0,7.0,62,0.00,,,0.00,meteohub,2013-08-30 18:37:00,
2013-08-30 14:42:00,86.4,70.9,29.96,North,350,4.0,7.0,60,0.00,,,0.00,meteohub,2013-08-30 18:42:00,
2013-08-30 14:47:00,85.6,70.7,29.96,NW,323,0.0,7.0,61,0.00,,,0.00,meteohub,2013-08-30 18:47:00,
2013-08-30 14:52:00,85.5,72.3,29.96,SE,129,0.0,6.0,65,0.00,,,0.00,meteohub,2013-08-30 18:52:00,
2013-08-30 14:57:00,85.8,71.2,29.96,SSE,159,0.0,6.0,62,0.00,,,0.00,meteohub,2013-08-30 18:57:00,
2013-08-30 15:02:00,86.2,70.7,29.96,SSW,213,0.0,5.0,60,0.00,,,0.00,meteohub,2013-08-30 19:02:00,
2013-08-30 15:07:00,86.0,71.4,29.95,WSW,239,2.0,5.0,62,0.00,,,0.00,meteohub,2013-08-30 19:07:00,
2013-08-30 15:12:00,86.4,71.2,29.95,NNW,341,1.0,5.0,61,0.00,,,0.00,meteohub,2013-08-30 19:12:00,
2013-08-30 15:17:00,86.4,71.2,29.95,West,281,0.0,5.0,61,0.00,,,0.00,meteohub,2013-08-30 19:17:00,
2013-08-30 15:22:00,86.4,70.9,29.95,West,264,2.0,5.0,60,0.00,,,0.00,meteohub,2013-08-30 19:22:00,
2013-08-30 15:27:00,86.5,72.5,29.94,East,101,0.0,5.0,63,0.00,,,0.00,meteohub,2013-08-30 19:27:00,
2013-08-30 15:32:00,86.5,71.4,29.95,SW,229,0.0,5.0,61,0.00,,,0.00,meteohub,2013-08-30 19:32:00,
2013-08-30 15:37:00,86.7,71.2,29.95,SSE,155,3.0,5.0,60,0.00,,,0.00,meteohub,2013-08-30 19:37:00,
2013-08-30 15:42:00,86.7,70.7,29.95,SW,225,5.0,6.0,59,0.00,,,0.00,meteohub,2013-08-30 19:42:00,
2013-08-30 15:47:00,86.4,70.9,29.95,NNW,348,1.0,7.0,60,0.00,,,0.00,meteohub,2013-08-30 19:47:00,
2013-08-30 15:52:00,86.5,71.4,29.95,SSE,163,2.0,7.0,61,0.00,,,0.00,meteohub,2013-08-30 19:52:00,
2013-08-30 15:57:00,86.7,71.2,29.94,WNW,296,2.0,7.0,60,0.00,,,0.00,meteohub,2013-08-30 19:57:00,
2013-08-30 16:02:00,86.5,70.0,29.94,SW,222,1.0,5.0,58,0.00,,,0.00,meteohub,2013-08-30 20:02:00,
2013-08-30 16:07:00,86.4,70.9,29.94,WNW,292,0.0,5.0,60,0.00,,,0.00,meteohub,2013-08-30 20:07:00,
2013-08-30 16:12:00,86.2,72.1,29.94,NE,38,0.0,5.0,63,0.00,,,0.00,meteohub,2013-08-30 20:12:00,
2013-08-30 16:17:00,85.8,69.8,29.94,SSW,203,0.0,5.0,59,0.00,,,0.00,meteohub,2013-08-30 20:17:00,
2013-08-30 16:22:00,85.6,70.2,29.94,WNW,300,0.0,8.0,60,0.00,,,0.00,meteohub,2013-08-30 20:22:00,
2013-08-30 16:27:00,85.5,69.4,29.94,West,269,0.0,8.0,59,0.00,,,0.00,meteohub,2013-08-30 20:27:00,
2013-08-30 16:32:00,85.6,68.7,29.93,SW,217,1.0,8.0,57,0.00,,,0.00,meteohub,2013-08-30 20:32:00,
2013-08-30 16:37:00,85.5,70.9,29.93,North,355,0.0,6.0,62,0.00,,,0.00,meteohub,2013-08-30 20:37:00,
2013-08-30 16:42:00,85.3,69.8,29.93,NNW,342,1.0,6.0,60,0.00,,,0.00,meteohub,2013-08-30 20:42:00,
2013-08-30 16:47:00,85.1,69.1,29.93,WNW,302,0.0,6.0,59,0.00,,,0.00,meteohub,2013-08-30 20:47:00,
2013-08-30 16:52:00,84.9,68.0,29.93,WNW,301,2.0,6.0,57,0.00,,,0.00,meteohub,2013-08-30 20:52:00,
2013-08-30 16:57:00,84.7,69.3,29.93,WSW,255,1.0,4.0,60,0.00,,,0.00,meteohub,2013-08-30 20:57:00,
2013-08-30 17:02:00,84.7,68.9,29.93,NW,318,1.0,5.0,59,0.00,,,0.00,meteohub,2013-08-30 21:02:00,
2013-08-30 17:07:00,84.6,68.7,29.93,ENE,78,0.0,5.0,59,0.00,,,0.00,meteohub,2013-08-30 21:07:00,
2013-08-30 17:12:00,84.6,68.7,29.92,SSE,166,1.0,5.0,59,0.00,,,0.00,meteohub,2013-08-30 21:12:00,
2013-08-30 17:17:00,84.6,70.5,29.93,NNE,28,0.0,4.0,63,0.00,,,0.00,meteohub,2013-08-30 21:17:00,
2013-08-30 17:22:00,84.4,68.5,29.92,SW,232,2.0,4.0,59,0.00,,,0.00,meteohub,2013-08-30 21:22:00,
2013-08-30 17:27:00,84.0,68.7,29.92,SSW,194,0.0,6.0,60,0.00,,,0.00,meteohub,2013-08-30 21:27:00,
2013-08-30 17:32:00,83.8,68.9,29.93,SSW,202,1.0,6.0,61,0.00,,,0.00,meteohub,2013-08-30 21:32:00,
2013-08-30 17:37:00,83.8,68.9,29.92,NE,36,1.0,6.0,61,0.00,,,0.00,meteohub,2013-08-30 21:37:00,
2013-08-30 17:42:00,83.7,69.3,29.92,South,180,0.0,4.0,62,0.00,,,0.00,meteohub,2013-08-30 21:42:00,
2013-08-30 17:47:00,83.5,69.1,29.92,WNW,290,1.0,4.0,62,0.00,,,0.00,meteohub,2013-08-30 21:47:00,
2013-08-30 17:52:00,83.5,69.1,29.92,SW,227,0.0,3.0,62,0.00,,,0.00,meteohub,2013-08-30 21:52:00,
2013-08-30 17:57:00,83.1,69.3,29.92,NNE,19,0.0,4.0,63,0.00,,,0.00,meteohub,2013-08-30 21:57:00,
2013-08-30 18:02:00,83.1,69.6,29.92,NNE,19,0.0,4.0,64,0.00,,,0.00,meteohub,2013-08-30 22:02:00,
2013-08-30 18:07:00,82.9,70.0,29.92,SE,125,1.0,4.0,65,0.00,,,0.00,meteohub,2013-08-30 22:07:00,
2013-08-30 18:12:00,82.9,70.0,29.92,South,184,1.0,3.0,65,0.00,,,0.00,meteohub,2013-08-30 22:12:00,
2013-08-30 18:17:00,82.6,70.0,29.91,WSW,237,1.0,3.0,66,0.00,,,0.00,meteohub,2013-08-30 22:17:00,
2013-08-30 18:22:00,82.6,70.0,29.91,East,96,2.0,3.0,66,0.00,,,0.00,meteohub,2013-08-30 22:22:00,
2013-08-30 18:27:00,82.4,70.3,29.91,South,186,1.0,3.0,67,0.00,,,0.00,meteohub,2013-08-30 22:27:00,
2013-08-30 18:32:00,82.2,70.5,29.91,South,186,0.0,4.0,68,0.00,,,0.00,meteohub,2013-08-30 22:32:00,
2013-08-30 18:37:00,82.0,70.0,29.91,SW,227,0.0,4.0,67,0.00,,,0.00,meteohub,2013-08-30 22:37:00,
2013-08-30 18:42:00,81.9,70.3,29.91,West,280,1.0,5.0,68,0.00,,,0.00,meteohub,2013-08-30 22:42:00,
2013-08-30 18:47:00,81.7,70.2,29.91,South,191,0.0,5.0,68,0.00,,,0.00,meteohub,2013-08-30 22:47:00,
2013-08-30 18:52:00,81.3,70.2,29.91,NNW,332,0.0,5.0,69,0.00,,,0.00,meteohub,2013-08-30 22:52:00,
2013-08-30 18:57:00,81.1,70.3,29.91,SSW,203,0.0,4.0,70,0.00,,,0.00,meteohub,2013-08-30 22:57:00,
2013-08-30 19:02:00,81.0,70.2,29.91,SSW,207,0.0,4.0,70,0.00,,,0.00,meteohub,2013-08-30 23:02:00,
2013-08-30 19:07:00,80.8,70.2,29.91,SE,146,0.0,4.0,70,0.00,,,0.00,meteohub,2013-08-30 23:07:00,
2013-08-30 19:12:00,80.6,70.3,29.91,SE,146,0.0,2.0,71,0.00,,,0.00,meteohub,2013-08-30 23:12:00,
2013-08-30 19:17:00,80.2,70.0,29.91,SW,215,0.0,2.0,71,0.00,,,0.00,meteohub,2013-08-30 23:17:00,
2013-08-30 19:22:00,80.1,70.2,29.91,WNW,302,0.0,4.0,72,0.00,,,0.00,meteohub,2013-08-30 23:22:00,
2013-08-30 19:27:00,79.9,70.5,29.91,WNW,302,0.0,5.0,73,0.00,,,0.00,meteohub,2013-08-30 23:27:00,
2013-08-30 19:32:00,79.5,70.2,29.91,WNW,284,1.0,5.0,73,0.00,,,0.00,meteohub,2013-08-30 23:32:00,
2013-08-30 19:37:00,79.3,70.0,29.91,WNW,284,0.0,1.0,73,0.00,,,0.00,meteohub,2013-08-30 23:37:00,
2013-08-30 19:42:00,79.0,70.0,29.91,WNW,285,0.0,2.0,74,0.00,,,0.00,meteohub,2013-08-30 23:42:00,
2013-08-30 19:47:00,79.0,70.3,29.91,WNW,285,0.0,2.0,75,0.00,,,0.00,meteohub,2013-08-30 23:47:00,
2013-08-30 19:52:00,78.6,70.0,29.91,WNW,285,0.0,2.0,75,0.00,,,0.00,meteohub,2013-08-30 23:52:00,
2013-08-30 19:57:00,78.4,69.8,29.91,WNW,285,0.0,0.0,75,0.00,,,0.00,meteohub,2013-08-30 23:57:00,
2013-08-30 20:02:00,78.3,70.0,29.91,WNW,285,0.0,0.0,76,0.00,,,0.00,meteohub,2013-08-31 00:02:00,
2013-08-30 20:07:00,77.9,69.8,29.91,WNW,285,0.0,0.0,76,0.00,,,0.00,meteohub,2013-08-31 00:07:00,
2013-08-30 20:12:00,77.7,70.0,29.91,WNW,285,0.0,0.0,77,0.00,,,0.00,meteohub,2013-08-31 00:12:00,
2013-08-30 20:17:00,77.4,69.6,29.91,WNW,285,0.0,0.0,77,0.00,,,0.00,meteohub,2013-08-31 00:17:00,
2013-08-30 20:22:00,77.2,69.8,29.91,WNW,285,0.0,0.0,78,0.00,,,0.00,meteohub,2013-08-31 00:22:00,
2013-08-30 20:27:00,76.8,69.4,29.90,WNW,285,0.0,1.0,78,0.00,,,0.00,meteohub,2013-08-31 00:27:00,
2013-08-30 20:32:00,76.5,69.4,29.90,WNW,285,0.0,1.0,79,0.00,,,0.00,meteohub,2013-08-31 00:32:00,
2013-08-30 20:37:00,76.3,69.6,29.91,WNW,285,0.0,0.0,80,0.00,,,0.00,meteohub,2013-08-31 00:37:00,
2013-08-30 20:42:00,76.1,69.4,29.91,WNW,285,0.0,0.0,80,0.00,,,0.00,meteohub,2013-08-31 00:42:00,
2013-08-30 20:47:00,75.7,69.4,29.91,WNW,285,0.0,1.0,81,0.00,,,0.00,meteohub,2013-08-31 00:47:00,
2013-08-30 20:52:00,75.6,69.3,29.91,WNW,285,0.0,1.0,81,0.00,,,0.00,meteohub,2013-08-31 00:52:00,
2013-08-30 20:57:00,75.4,69.4,29.91,WNW,285,0.0,1.0,82,0.00,,,0.00,meteohub,2013-08-31 00:57:00,
2013-08-30 21:02:00,75.2,69.3,29.91,East,93,0.0,1.0,82,0.00,,,0.00,meteohub,2013-08-31 01:02:00,
2013-08-30 21:07:00,75.0,69.1,29.91,East,93,0.0,2.0,82,0.00,,,0.00,meteohub,2013-08-31 01:07:00,
2013-08-30 21:12:00,75.0,69.1,29.91,SW,217,1.0,2.0,82,0.00,,,0.00,meteohub,2013-08-31 01:12:00,
2013-08-30 21:17:00,74.8,69.3,29.91,SW,217,0.0,2.0,83,0.00,,,0.00,meteohub,2013-08-31 01:17:00,
2013-08-30 21:22:00,74.8,69.3,29.91,SW,217,0.0,2.0,83,0.00,,,0.00,meteohub,2013-08-31 01:22:00,
2013-08-30 21:27:00,74.8,69.3,29.92,SW,217,0.0,2.0,83,0.00,,,0.00,meteohub,2013-08-31 01:27:00,
2013-08-30 21:32:00,74.8,69.3,29.91,SW,217,0.0,1.0,83,0.00,,,0.00,meteohub,2013-08-31 01:32:00,
2013-08-30 21:37:00,74.8,69.3,29.92,SW,217,0.0,1.0,83,0.00,,,0.00,meteohub,2013-08-31 01:37:00,
2013-08-30 21:42:00,74.8,69.6,29.92,SW,217,0.0,1.0,84,0.00,,,0.00,meteohub,2013-08-31 01:42:00,
2013-08-30 21:47:00,74.8,69.6,29.92,SW,217,0.0,1.0,84,0.00,,,0.00,meteohub,2013-08-31 01:47:00,
2013-08-30 21:52:00,74.7,69.4,29.92,SW,219,0.0,1.0,84,0.00,,,0.00,meteohub,2013-08-31 01:52:00,
2013-08-30 21:57:00,74.7,69.8,29.92,ENE,72,0.0,1.0,85,0.00,,,0.00,meteohub,2013-08-31 01:57:00,
2013-08-30 22:02:00,74.7,69.8,29.92,NW,306,3.0,3.0,85,0.00,,,0.00,meteohub,2013-08-31 02:02:00,
2013-08-30 22:07:00,74.5,69.6,29.93,West,259,0.0,3.0,85,0.00,,,0.00,meteohub,2013-08-31 02:07:00,
2013-08-30 22:12:00,74.5,69.6,29.93,West,265,0.0,3.0,85,0.00,,,0.00,meteohub,2013-08-31 02:12:00,
2013-08-30 22:17:00,74.5,69.6,29.93,West,265,0.0,3.0,85,0.00,,,0.00,meteohub,2013-08-31 02:17:00,
2013-08-30 22:22:00,74.5,69.3,29.93,SSW,207,0.0,1.0,84,0.00,,,0.00,meteohub,2013-08-31 02:22:00,
2013-08-30 22:27:00,74.7,69.4,29.93,SSE,154,0.0,3.0,84,0.00,,,0.00,meteohub,2013-08-31 02:27:00,
2013-08-30 22:32:00,74.7,69.4,29.93,SSE,163,0.0,3.0,84,0.00,,,0.00,meteohub,2013-08-31 02:32:00,
2013-08-30 22:37:00,74.7,69.4,29.93,SSE,163,0.0,3.0,84,0.00,,,0.00,meteohub,2013-08-31 02:37:00,
2013-08-30 22:42:00,74.7,69.8,29.93,SSE,163,0.0,2.0,85,0.00,,,0.00,meteohub,2013-08-31 02:42:00,
2013-08-30 22:47:00,74.7,69.4,29.93,East,92,0.0,1.0,84,0.00,,,0.00,meteohub,2013-08-31 02:47:00,
2013-08-30 22:52:00,74.7,69.4,29.93,WSW,246,0.0,3.0,84,0.00,,,0.00,meteohub,2013-08-31 02:52:00,
2013-08-30 22:57:00,74.7,69.4,29.93,West,263,0.0,3.0,84,0.00,,,0.00,meteohub,2013-08-31 02:57:00,
2013-08-30 23:02:00,74.7,69.4,29.93,North,355,0.0,2.0,84,0.00,,,0.00,meteohub,2013-08-31 03:02:00,
2013-08-30 23:07:00,74.5,69.3,29.93,North,355,0.0,3.0,84,0.00,,,0.00,meteohub,2013-08-31 03:07:00,
2013-08-30 23:12:00,74.5,69.6,29.93,WSW,247,0.0,3.0,85,0.00,,,0.00,meteohub,2013-08-31 03:12:00,
2013-08-30 23:17:00,74.1,69.3,29.93,SW,236,0.0,2.0,85,0.00,,,0.00,meteohub,2013-08-31 03:17:00,
2013-08-30 23:22:00,74.1,69.3,29.93,SW,236,0.0,2.0,85,0.00,,,0.00,meteohub,2013-08-31 03:22:00,
2013-08-30 23:27:00,73.9,69.1,29.93,SW,236,0.0,1.0,85,0.00,,,0.00,meteohub,2013-08-31 03:27:00,
2013-08-30 23:32:00,73.9,69.4,29.93,WNW,293,1.0,1.0,86,0.00,,,0.00,meteohub,2013-08-31 03:32:00,
2013-08-30 23:37:00,73.8,69.3,29.93,WSW,256,1.0,3.0,86,0.00,,,0.00,meteohub,2013-08-31 03:37:00,
2013-08-30 23:42:00,73.8,69.3,29.93,WSW,256,0.0,3.0,86,0.00,,,0.00,meteohub,2013-08-31 03:42:00,
2013-08-30 23:47:00,73.8,69.3,29.92,WSW,250,0.0,3.0,86,0.00,,,0.00,meteohub,2013-08-31 03:47:00,
2013-08-30 23:52:00,73.8,69.3,29.92,SW,228,0.0,2.0,86,0.00,,,0.00,meteohub,2013-08-31 03:52:00,
2013-08-30 23:57:00,73.6,69.1,29.92,West,280,0.0,2.0,86,0.00,,,0.00,meteohub,2013-08-31 03:57:00,